DELTA 1 DEB, 10746

Orbit data source: Space-Track

DELTA 1 DEB, 10746 is space debris in SSO originally from a launch on Thu, 29 Jul 1976 UTC launched from the Air Force Western Test Range (AFWTR). Debris objects in space refer to the collection of defunct objects orbiting the Earth. Examples of debris include non-operational satellites, rocket bodies, and fragments generated from explosions, collisions, or faulty payload assembly.

Loading next visibility...
Identifier
10746, 1976-077AT
Orbit
SSO
Country
Flag of USUS
Related business
Manufacturer
Unknown
Mission
Spacecraft
Bus & Motor
Unknown
Mass
Unknown
Launch date (UTC)
1976-07-29 (49 years ago)
Launch vehicle
Unknown
Launch site
Air Force Western Test Range (AFWTR)
Object type
Payload
Rocket body
Debris
Shape & HBR
Unknown shape, 1.1 m
Radar Cross Section
Small (<0.1 m²)

Expand to show TLE details & history
Last TLE update: 17 hours ago

TLE from 17 hours ago
0 DELTA 1 DEB
1 10746U 76077AT  25291.27043941  .00002735  00000-0  55373-2 0  9996
2 10746 101.9145 117.5678 0276928 114.0286 325.4894 13.21526727321155
Epoch: 2025-10-18T06:29Z
TLE epoch observation values (Epoch: 2025-10-18T06:29:25.965Z)
Latitude
72.9898°
Longitude
-50.11782°
Altitude
1,020.737 km
Speed
7.431 km/s
True Right ascension
04h 56m 58s
True Declination
72° 53' 48"
Sunlit
Object was in daylight at epoch
Visualization orbit readout
Latitude
Unknown
Longitude
Unknown
Altitude
Unknown
Speed
Unknown
Apparent Right ascension
Unknown
Apparent Declination
Unknown
Sunlit
N/A
Visualization observer readout
Local Sidereal Time
18:08:48
Azimuth
Unknown
Elevation
Unknown
Doppler factor
Unknown
Orbital elements
Apogee altitude
1,385.56 km
Perigee altitude
967.15 km
Semi-major axis
7,554.492 km
Eccentricity
0.02769
Inclination
101.9145°
RAAN
117.5678°
Arg. of periapsis
114.0286°
True anomaly
323.6391°
Mean anomaly
325.4894°
Eccentric anomaly
324.56958°
Mean motion
3.30549 °/min
Orbital period
108.91 mins
BSTAR
0.0055373
Loading maneuver chart data...
Computing Atmospheric mass density...
Loading historical data...
Loading historical data...
Loading historical data...
Loading historical data...
Loading historical data...
Loading historical data...
Loading historical data...

Documentation

Showing up to 5 results
|